Time,TemperatureF,DewpointF,PressureIn,WindDirection,WindDirectionDegrees,WindSpeedMPH,WindSpeedGustMPH,Humidity,HourlyPrecipIn,Conditions,Clouds,dailyrainin,SoftwareType,DateUTC
2013-09-14 00:01:00,79.9,72.9,29.81,SE,135,0.0,0.0,79,0.00,,,0.00,WUHU216HW,2013-09-14 04:01:00,
2013-09-14 00:02:00,79.9,72.9,29.81,SE,135,0.0,0.0,79,0.00,,,0.00,WUHU216HW,2013-09-14 04:02:00,
2013-09-14 00:07:00,79.7,72.7,29.81,SE,135,0.0,0.0,79,0.00,,,0.00,WUHU216HW,2013-09-14 04:07:00,
2013-09-14 00:12:00,79.6,72.6,29.81,SE,135,0.0,0.0,79,0.00,,,0.00,WUHU216HW,2013-09-14 04:12:00,
2013-09-14 00:17:00,79.6,72.9,29.81,SE,135,0.0,0.0,80,0.00,,,0.00,WUHU216HW,2013-09-14 04:17:00,
2013-09-14 00:22:00,79.6,72.9,29.81,SE,135,0.0,0.0,80,0.00,,,0.00,WUHU216HW,2013-09-14 04:22:00,
2013-09-14 00:27:00,79.6,72.9,29.81,SE,135,0.0,0.0,80,0.00,,,0.00,WUHU216HW,2013-09-14 04:27:00,
2013-09-14 00:32:00,79.6,72.9,29.81,SE,135,0.0,0.0,80,0.00,,,0.00,WUHU216HW,2013-09-14 04:32:00,
2013-09-14 00:37:00,79.6,73.3,29.81,SE,135,0.0,0.0,81,0.00,,,0.00,WUHU216HW,2013-09-14 04:37:00,
2013-09-14 00:42:00,79.6,73.3,29.81,SE,135,0.0,0.0,81,0.00,,,0.00,WUHU216HW,2013-09-14 04:42:00,
2013-09-14 00:47:00,79.4,73.1,29.81,SE,135,0.0,0.0,81,0.00,,,0.00,WUHU216HW,2013-09-14 04:47:00,
2013-09-14 00:52:00,79.4,73.1,29.81,SE,135,0.0,0.0,81,0.00,,,0.00,WUHU216HW,2013-09-14 04:52:00,
2013-09-14 00:57:00,79.4,73.1,29.81,SE,135,0.0,0.0,81,0.00,,,0.00,WUHU216HW,2013-09-14 04:57:00,
2013-09-14 01:02:00,79.4,73.1,29.81,SE,135,0.0,0.0,81,0.00,,,0.00,WUHU216HW,2013-09-14 05:02:00,
2013-09-14 01:07:00,79.2,72.9,29.80,SE,135,0.0,0.0,81,0.00,,,0.00,WUHU216HW,2013-09-14 05:07:00,
2013-09-14 01:12:00,79.2,72.9,29.80,SE,135,0.0,0.0,81,0.00,,,0.00,WUHU216HW,2013-09-14 05:12:00,
2013-09-14 01:17:00,79.2,72.9,29.80,SE,135,0.0,0.0,81,0.00,,,0.00,WUHU216HW,2013-09-14 05:17:00,
2013-09-14 01:22:00,79.2,72.9,29.81,SE,135,0.0,0.0,81,0.00,,,0.00,WUHU216HW,2013-09-14 05:22:00,
2013-09-14 01:27:00,79.0,72.7,29.81,SE,135,0.0,0.0,81,0.00,,,0.00,WUHU216HW,2013-09-14 05:27:00,
2013-09-14 01:32:00,79.0,72.7,29.81,SE,135,0.0,0.0,81,0.00,,,0.00,WUHU216HW,2013-09-14 05:32:00,
2013-09-14 01:37:00,79.0,72.7,29.81,SE,135,0.0,0.0,81,0.00,,,0.00,WUHU216HW,2013-09-14 05:37:00,
2013-09-14 01:42:00,78.8,72.9,29.81,SE,135,0.0,0.0,82,0.00,,,0.00,WUHU216HW,2013-09-14 05:42:00,
2013-09-14 01:47:00,78.8,72.9,29.81,SE,135,0.0,0.0,82,0.00,,,0.00,WUHU216HW,2013-09-14 05:47:00,
2013-09-14 01:52:00,78.8,72.5,29.81,SE,135,0.0,0.0,81,0.00,,,0.00,WUHU216HW,2013-09-14 05:52:00,
2013-09-14 01:57:00,78.7,72.4,29.81,SE,135,0.0,0.0,81,0.00,,,0.00,WUHU216HW,2013-09-14 05:57:00,
2013-09-14 02:02:00,78.7,72.4,29.80,SE,135,0.0,0.0,81,0.00,,,0.00,WUHU216HW,2013-09-14 06:02:00,
2013-09-14 02:07:00,78.5,72.5,29.81,SE,135,0.0,0.0,82,0.00,,,0.00,WUHU216HW,2013-09-14 06:07:00,
2013-09-14 02:12:00,78.7,72.7,29.81,SE,135,0.0,0.0,82,0.00,,,0.00,WUHU216HW,2013-09-14 06:12:00,
2013-09-14 02:17:00,78.7,72.7,29.81,SE,135,0.0,0.0,82,0.00,,,0.00,WUHU216HW,2013-09-14 06:17:00,
2013-09-14 02:22:00,78.5,72.5,29.81,SE,135,0.0,0.0,82,0.00,,,0.00,WUHU216HW,2013-09-14 06:22:00,
2013-09-14 02:27:00,78.5,72.5,29.81,SE,135,0.0,0.0,82,0.00,,,0.00,WUHU216HW,2013-09-14 06:27:00,
2013-09-14 02:32:00,78.5,72.5,29.81,SE,135,0.0,0.0,82,0.00,,,0.00,WUHU216HW,2013-09-14 06:32:00,
2013-09-14 02:37:00,78.5,72.5,29.81,SE,135,0.0,0.0,82,0.00,,,0.00,WUHU216HW,2013-09-14 06:37:00,
2013-09-14 02:42:00,78.5,72.9,29.81,SE,135,0.0,0.0,83,0.00,,,0.00,WUHU216HW,2013-09-14 06:42:00,
2013-09-14 02:47:00,78.5,72.9,29.81,SE,135,0.0,0.0,83,0.00,,,0.00,WUHU216HW,2013-09-14 06:47:00,
2013-09-14 02:52:00,78.5,72.5,29.81,SE,135,0.0,0.0,82,0.00,,,0.00,WUHU216HW,2013-09-14 06:52:00,
2013-09-14 02:57:00,78.3,72.7,29.81,SE,135,0.0,0.0,83,0.00,,,0.00,WUHU216HW,2013-09-14 06:57:00,
2013-09-14 03:02:00,78.3,72.7,29.81,SE,135,0.0,0.0,83,0.00,,,0.00,WUHU216HW,2013-09-14 07:02:00,
2013-09-14 03:07:00,78.3,72.7,29.80,SE,135,0.0,0.0,83,0.00,,,0.00,WUHU216HW,2013-09-14 07:07:00,
2013-09-14 03:12:00,78.1,72.5,29.81,SE,135,0.0,0.0,83,0.00,,,0.00,WUHU216HW,2013-09-14 07:12:00,
2013-09-14 03:17:00,78.1,72.5,29.80,SE,135,0.0,0.0,83,0.00,,,0.00,WUHU216HW,2013-09-14 07:17:00,
2013-09-14 03:22:00,77.9,72.4,29.80,SE,135,0.0,0.0,83,0.00,,,0.00,WUHU216HW,2013-09-14 07:22:00,
2013-09-14 03:27:00,77.9,72.4,29.80,SE,135,0.0,0.0,83,0.00,,,0.00,WUHU216HW,2013-09-14 07:27:00,
2013-09-14 03:32:00,77.9,72.4,29.80,SE,135,0.0,0.0,83,0.00,,,0.00,WUHU216HW,2013-09-14 07:32:00,
2013-09-14 03:37:00,77.9,72.4,29.80,SE,135,0.0,0.0,83,0.00,,,0.00,WUHU216HW,2013-09-14 07:37:00,
2013-09-14 03:42:00,77.9,72.4,29.80,SE,135,0.0,0.0,83,0.00,,,0.00,WUHU216HW,2013-09-14 07:42:00,
2013-09-14 03:47:00,77.9,72.4,29.80,SE,135,0.0,0.0,83,0.00,,,0.00,WUHU216HW,2013-09-14 07:47:00,
2013-09-14 03:52:00,77.9,72.7,29.80,SE,135,0.0,0.0,84,0.00,,,0.00,WUHU216HW,2013-09-14 07:52:00,
2013-09-14 03:57:00,77.9,72.7,29.80,SE,135,0.0,0.0,84,0.00,,,0.00,WUHU216HW,2013-09-14 07:57:00,
2013-09-14 04:02:00,77.9,72.7,29.80,SE,135,0.0,0.0,84,0.00,,,0.00,WUHU216HW,2013-09-14 08:02:00,
2013-09-14 04:07:00,77.9,72.7,29.80,SE,135,0.0,0.0,84,0.00,,,0.00,WUHU216HW,2013-09-14 08:07:00,
2013-09-14 04:12:00,77.9,72.7,29.80,SE,135,0.0,0.0,84,0.00,,,0.00,WUHU216HW,2013-09-14 08:12:00,
2013-09-14 04:17:00,77.8,72.5,29.80,SE,135,0.0,0.0,84,0.00,,,0.00,WUHU216HW,2013-09-14 08:17:00,
2013-09-14 04:22:00,77.8,72.9,29.80,SE,135,0.0,0.0,85,0.00,,,0.00,WUHU216HW,2013-09-14 08:22:00,
2013-09-14 04:27:00,77.8,72.9,29.80,SE,135,0.0,0.0,85,0.00,,,0.00,WUHU216HW,2013-09-14 08:27:00,
2013-09-14 04:32:00,77.8,72.9,29.80,SE,135,0.0,0.0,85,0.00,,,0.00,WUHU216HW,2013-09-14 08:32:00,
2013-09-14 04:37:00,77.8,72.9,29.80,SE,135,0.0,0.0,85,0.00,,,0.00,WUHU216HW,2013-09-14 08:37:00,
2013-09-14 04:42:00,77.6,72.7,29.80,SE,135,0.0,0.0,85,0.00,,,0.00,WUHU216HW,2013-09-14 08:42:00,
2013-09-14 04:47:00,77.6,72.7,29.80,SE,135,0.0,0.0,85,0.00,,,0.00,WUHU216HW,2013-09-14 08:47:00,
2013-09-14 04:52:00,77.6,72.7,29.80,SE,135,0.0,0.0,85,0.00,,,0.00,WUHU216HW,2013-09-14 08:52:00,
2013-09-14 04:57:00,77.4,72.2,29.80,SE,135,0.0,0.0,84,0.00,,,0.00,WUHU216HW,2013-09-14 08:57:00,
2013-09-14 05:02:00,77.4,72.5,29.80,SE,135,0.0,0.0,85,0.00,,,0.00,WUHU216HW,2013-09-14 09:02:00,
2013-09-14 05:08:00,77.2,72.0,29.81,SE,135,0.0,0.0,84,0.00,,,0.00,WUHU216HW,2013-09-14 09:08:00,
2013-09-14 05:13:00,77.2,72.0,29.80,SE,135,0.0,0.0,84,0.00,,,0.00,WUHU216HW,2013-09-14 09:13:00,
2013-09-14 05:18:00,77.0,72.2,29.80,SE,135,0.0,0.0,85,0.00,,,0.00,WUHU216HW,2013-09-14 09:18:00,
2013-09-14 05:22:00,77.0,71.8,29.80,SE,135,0.0,0.0,84,0.00,,,0.00,WUHU216HW,2013-09-14 09:22:00,
2013-09-14 05:28:00,77.0,71.8,29.80,SE,135,0.0,0.0,84,0.00,,,0.00,WUHU216HW,2013-09-14 09:28:00,
2013-09-14 05:33:00,76.9,72.0,29.80,SE,135,0.0,0.0,85,0.00,,,0.00,WUHU216HW,2013-09-14 09:33:00,
2013-09-14 05:37:00,76.9,72.0,29.80,SE,135,0.0,0.0,85,0.00,,,0.00,WUHU216HW,2013-09-14 09:37:00,
2013-09-14 05:42:00,76.7,71.8,29.80,SE,135,0.0,0.0,85,0.00,,,0.00,WUHU216HW,2013-09-14 09:42:00,
2013-09-14 05:47:00,76.7,71.8,29.80,SE,135,0.0,0.0,85,0.00,,,0.00,WUHU216HW,2013-09-14 09:47:00,
2013-09-14 05:52:00,76.7,71.8,29.80,SE,135,0.0,0.0,85,0.00,,,0.00,WUHU216HW,2013-09-14 09:52:00,
2013-09-14 05:57:00,76.7,71.8,29.80,SE,135,0.0,0.0,85,0.00,,,0.00,WUHU216HW,2013-09-14 09:57:00,
2013-09-14 06:02:00,76.9,72.0,29.80,SE,135,0.0,0.0,85,0.00,,,0.00,WUHU216HW,2013-09-14 10:02:00,
2013-09-14 06:08:00,76.9,72.0,29.81,SE,135,0.0,0.0,85,0.00,,,0.00,WUHU216HW,2013-09-14 10:08:00,
2013-09-14 06:13:00,77.0,72.2,29.81,SE,135,0.0,0.0,85,0.00,,,0.00,WUHU216HW,2013-09-14 10:13:00,
2013-09-14 06:18:00,76.9,72.0,29.81,SE,135,0.0,0.0,85,0.00,,,0.00,WUHU216HW,2013-09-14 10:18:00,
2013-09-14 06:23:00,76.9,72.0,29.82,SSE,158,0.0,0.0,85,0.00,,,0.00,WUHU216HW,2013-09-14 10:23:00,
2013-09-14 06:28:00,76.9,72.0,29.81,SSE,158,0.0,0.0,85,0.00,,,0.00,WUHU216HW,2013-09-14 10:28:00,
2013-09-14 06:33:00,76.9,72.0,29.82,SSE,158,0.0,0.0,85,0.00,,,0.00,WUHU216HW,2013-09-14 10:33:00,
2013-09-14 06:38:00,76.9,72.0,29.82,SSE,158,0.0,0.0,85,0.00,,,0.00,WUHU216HW,2013-09-14 10:38:00,
2013-09-14 06:43:00,76.9,72.0,29.81,SSE,158,0.0,0.0,85,0.00,,,0.00,WUHU216HW,2013-09-14 10:43:00,
2013-09-14 06:47:00,76.7,71.8,29.82,SSE,158,0.0,0.0,85,0.00,,,0.00,WUHU216HW,2013-09-14 10:47:00,
2013-09-14 06:53:00,76.9,72.0,29.82,WSW,248,0.0,0.0,85,0.00,,,0.00,WUHU216HW,2013-09-14 10:53:00,
2013-09-14 06:58:00,77.0,72.2,29.82,WSW,248,0.0,0.0,85,0.00,,,0.00,WUHU216HW,2013-09-14 10:58:00,
2013-09-14 07:02:00,77.0,72.2,29.82,WSW,248,0.0,0.0,85,0.00,,,0.00,WUHU216HW,2013-09-14 11:02:00,
2013-09-14 07:07:00,76.9,72.0,29.82,WSW,248,0.0,0.0,85,0.00,,,0.00,WUHU216HW,2013-09-14 11:07:00,
2013-09-14 07:12:00,77.0,72.2,29.83,WSW,248,0.0,0.0,85,0.00,,,0.00,WUHU216HW,2013-09-14 11:12:00,
2013-09-14 07:17:00,77.2,72.7,29.83,WSW,248,0.0,0.0,86,0.00,,,0.00,WUHU216HW,2013-09-14 11:17:00,
2013-09-14 07:22:00,77.2,72.7,29.83,WSW,248,0.0,0.0,86,0.00,,,0.00,WUHU216HW,2013-09-14 11:22:00,
2013-09-14 07:27:00,77.2,72.7,29.83,WSW,248,0.0,0.0,86,0.00,,,0.00,WUHU216HW,2013-09-14 11:27:00,
2013-09-14 07:32:00,77.2,72.7,29.83,WSW,248,0.0,0.0,86,0.00,,,0.00,WUHU216HW,2013-09-14 11:32:00,
2013-09-14 07:38:00,77.4,72.9,29.83,WSW,248,0.0,0.0,86,0.00,,,0.00,WUHU216HW,2013-09-14 11:38:00,
2013-09-14 07:43:00,77.6,73.1,29.83,WSW,248,0.0,0.0,86,0.00,,,0.00,WUHU216HW,2013-09-14 11:43:00,
2013-09-14 07:48:00,77.6,73.1,29.84,WSW,248,0.0,0.0,86,0.00,,,0.00,WUHU216HW,2013-09-14 11:48:00,
2013-09-14 07:53:00,77.8,73.3,29.84,WSW,248,0.0,0.0,86,0.00,,,0.00,WUHU216HW,2013-09-14 11:53:00,
2013-09-14 07:58:00,77.9,73.4,29.84,WSW,248,0.0,0.0,86,0.00,,,0.00,WUHU216HW,2013-09-14 11:58:00,
2013-09-14 08:03:00,78.1,73.6,29.84,WSW,248,0.0,0.0,86,0.00,,,0.00,WUHU216HW,2013-09-14 12:03:00,
2013-09-14 08:08:00,78.5,74.0,29.84,WSW,248,0.0,0.0,86,0.00,,,0.00,WUHU216HW,2013-09-14 12:08:00,
2013-09-14 08:13:00,78.5,74.0,29.84,WSW,248,0.0,0.0,86,0.00,,,0.00,WUHU216HW,2013-09-14 12:13:00,
2013-09-14 08:18:00,78.8,74.3,29.84,WSW,248,0.0,0.0,86,0.00,,,0.00,WUHU216HW,2013-09-14 12:18:00,
2013-09-14 08:23:00,78.8,74.3,29.84,WSW,248,0.0,0.0,86,0.00,,,0.00,WUHU216HW,2013-09-14 12:23:00,
2013-09-14 08:28:00,79.2,74.7,29.85,WSW,248,0.0,0.0,86,0.00,,,0.00,WUHU216HW,2013-09-14 12:28:00,
2013-09-14 08:33:00,79.2,74.7,29.85,WSW,248,0.0,0.0,86,0.00,,,0.00,WUHU216HW,2013-09-14 12:33:00,
2013-09-14 08:38:00,79.2,74.7,29.85,WSW,248,0.0,0.0,86,0.00,,,0.00,WUHU216HW,2013-09-14 12:38:00,
2013-09-14 08:43:00,79.2,74.7,29.85,WSW,248,0.0,0.0,86,0.00,,,0.00,WUHU216HW,2013-09-14 12:43:00,
2013-09-14 08:48:00,79.2,74.7,29.86,WSW,248,0.0,0.0,86,0.00,,,0.00,WUHU216HW,2013-09-14 12:48:00,
2013-09-14 08:53:00,79.2,74.7,29.86,WSW,248,0.0,0.0,86,0.00,,,0.00,WUHU216HW,2013-09-14 12:53:00,
2013-09-14 08:58:00,79.4,74.9,29.86,WSW,248,0.0,0.0,86,0.00,,,0.00,WUHU216HW,2013-09-14 12:58:00,
2013-09-14 09:03:00,79.4,74.9,29.86,SE,135,0.0,0.0,86,0.00,,,0.00,WUHU216HW,2013-09-14 13:03:00,
2013-09-14 09:08:00,79.6,75.1,29.86,SE,135,0.0,0.0,86,0.00,,,0.00,WUHU216HW,2013-09-14 13:08:00,
2013-09-14 09:13:00,80.1,75.2,29.87,East,90,0.9,1.1,85,0.00,,,0.00,WUHU216HW,2013-09-14 13:13:00,
2013-09-14 09:18:00,80.5,75.5,29.87,East,90,0.7,1.1,85,0.00,,,0.00,WUHU216HW,2013-09-14 13:18:00,
2013-09-14 09:23:00,81.0,76.4,29.87,East,90,0.2,1.3,86,0.00,,,0.00,WUHU216HW,2013-09-14 13:23:00,
2013-09-14 09:28:00,81.5,76.6,29.87,East,90,1.1,1.3,85,0.00,,,0.00,WUHU216HW,2013-09-14 13:28:00,
2013-09-14 09:33:00,82.1,76.8,29.87,ESE,113,0.2,1.1,84,0.00,,,0.00,WUHU216HW,2013-09-14 13:33:00,
2013-09-14 09:38:00,82.6,76.6,29.87,East,90,0.7,1.1,82,0.00,,,0.00,WUHU216HW,2013-09-14 13:38:00,
2013-09-14 09:43:00,82.8,76.4,29.87,ESE,113,0.0,1.1,81,0.00,,,0.00,WUHU216HW,2013-09-14 13:43:00,
2013-09-14 09:48:00,83.3,77.0,29.87,SSE,158,0.7,1.1,81,0.00,,,0.00,WUHU216HW,2013-09-14 13:48:00,
2013-09-14 09:53:00,83.9,76.7,29.87,SE,135,0.2,1.6,79,0.00,,,0.00,WUHU216HW,2013-09-14 13:53:00,
2013-09-14 09:58:00,84.4,76.8,29.87,NE,45,0.0,1.6,78,0.00,,,0.00,WUHU216HW,2013-09-14 13:58:00,
2013-09-14 10:03:00,84.8,76.8,29.87,East,90,0.4,1.6,77,0.00,,,0.00,WUHU216HW,2013-09-14 14:03:00,
2013-09-14 10:08:00,85.1,76.7,29.87,ESE,113,1.1,1.1,76,0.00,,,0.00,WUHU216HW,2013-09-14 14:08:00,
2013-09-14 10:13:00,85.7,76.9,29.87,East,90,1.1,1.3,75,0.00,,,0.00,WUHU216HW,2013-09-14 14:13:00,
2013-09-14 10:18:00,85.7,76.5,29.88,ESE,113,0.0,1.8,74,0.00,,,0.00,WUHU216HW,2013-09-14 14:18:00,
2013-09-14 10:23:00,85.7,76.5,29.88,ESE,113,0.9,1.8,74,0.00,,,0.00,WUHU216HW,2013-09-14 14:23:00,
2013-09-14 10:28:00,86.0,76.4,29.88,SSE,158,0.0,0.9,73,0.00,,,0.00,WUHU216HW,2013-09-14 14:28:00,
2013-09-14 10:33:00,86.8,76.7,29.88,ESE,113,0.7,2.2,72,0.00,,,0.00,WUHU216HW,2013-09-14 14:33:00,
2013-09-14 10:38:00,87.3,76.8,29.88,SE,135,0.4,2.2,71,0.00,,,0.00,WUHU216HW,2013-09-14 14:38:00,
2013-09-14 10:43:00,87.8,76.0,29.88,ESE,113,0.0,1.8,68,0.00,,,0.00,WUHU216HW,2013-09-14 14:43:00,
2013-09-14 10:48:00,88.4,76.5,29.88,ESE,113,0.9,2.2,68,0.00,,,0.00,WUHU216HW,2013-09-14 14:48:00,
2013-09-14 10:53:00,88.6,76.2,29.88,East,90,0.4,2.2,67,0.00,,,0.00,WUHU216HW,2013-09-14 14:53:00,
2013-09-14 10:58:00,88.9,76.6,29.88,East,90,0.0,1.3,67,0.00,,,0.00,WUHU216HW,2013-09-14 14:58:00,
2013-09-14 11:03:00,89.3,77.0,29.88,SE,135,0.4,1.1,67,0.00,,,0.00,WUHU216HW,2013-09-14 15:03:00,
2013-09-14 11:08:00,89.6,76.8,29.88,SE,135,0.0,1.1,66,0.00,,,0.00,WUHU216HW,2013-09-14 15:08:00,
2013-09-14 11:13:00,90.4,77.4,29.89,North,0,0.0,1.1,66,0.00,,,0.00,WUHU216HW,2013-09-14 15:13:00,
2013-09-14 11:18:00,91.1,78.1,29.89,ESE,113,0.2,1.1,66,0.00,,,0.00,WUHU216HW,2013-09-14 15:18:00,
2013-09-14 11:23:00,91.8,78.3,29.89,ESE,113,0.0,1.3,65,0.00,,,0.00,WUHU216HW,2013-09-14 15:23:00,
2013-09-14 11:28:00,91.3,77.3,29.88,East,90,0.7,1.3,64,0.00,,,0.00,WUHU216HW,2013-09-14 15:28:00,
2013-09-14 11:33:00,90.7,76.9,29.89,East,90,0.7,1.1,64,0.00,,,0.00,WUHU216HW,2013-09-14 15:33:00,
2013-09-14 11:38:00,90.9,77.0,29.89,ESE,113,0.4,1.1,64,0.00,,,0.00,WUHU216HW,2013-09-14 15:38:00,
2013-09-14 11:43:00,91.1,76.2,29.89,ESE,113,1.1,2.2,62,0.00,,,0.00,WUHU216HW,2013-09-14 15:43:00,
2013-09-14 11:48:00,91.4,76.5,29.89,ENE,68,1.3,2.2,62,0.00,,,0.00,WUHU216HW,2013-09-14 15:48:00,
2013-09-14 11:53:00,91.8,76.9,29.89,ESE,113,0.4,2.2,62,0.00,,,0.00,WUHU216HW,2013-09-14 15:53:00,
2013-09-14 11:58:00,92.5,77.1,29.89,East,90,1.8,1.8,61,0.00,,,0.00,WUHU216HW,2013-09-14 15:58:00,
2013-09-14 12:03:00,93.1,75.5,29.89,SSE,158,0.4,1.8,57,0.00,,,0.00,WUHU216HW,2013-09-14 16:03:00,
2013-09-14 12:08:00,93.4,76.4,29.89,SE,135,0.9,2.0,58,0.00,,,0.00,WUHU216HW,2013-09-14 16:08:00,
2013-09-14 12:13:00,93.6,76.6,29.89,ENE,68,0.7,2.7,58,0.00,,,0.00,WUHU216HW,2013-09-14 16:13:00,
2013-09-14 12:18:00,93.6,76.6,29.89,NW,315,0.0,2.7,58,0.00,,,0.00,WUHU216HW,2013-09-14 16:18:00,
2013-09-14 12:23:00,93.1,76.7,29.89,West,270,0.4,0.9,59,0.00,,,0.00,WUHU216HW,2013-09-14 16:23:00,
2013-09-14 12:28:00,92.3,76.5,29.89,West,270,0.0,1.1,60,0.00,,,0.00,WUHU216HW,2013-09-14 16:28:00,
2013-09-14 12:33:00,91.4,76.1,29.89,NNW,338,0.0,1.1,61,0.00,,,0.00,WUHU216HW,2013-09-14 16:33:00,
2013-09-14 12:38:00,90.5,75.7,29.89,NNW,338,0.2,1.1,62,0.00,,,0.00,WUHU216HW,2013-09-14 16:38:00,
2013-09-14 12:43:00,90.0,76.1,29.88,WNW,293,0.0,0.7,64,0.00,,,0.00,WUHU216HW,2013-09-14 16:43:00,
2013-09-14 12:48:00,90.0,76.1,29.88,WNW,293,0.0,1.1,64,0.00,,,0.00,WUHU216HW,2013-09-14 16:48:00,
2013-09-14 12:53:00,89.8,76.1,29.88,WSW,248,0.2,1.8,64,0.00,,,0.00,WUHU216HW,2013-09-14 16:53:00,
2013-09-14 12:58:00,89.6,75.9,29.88,WSW,248,0.0,1.8,64,0.00,,,0.00,WUHU216HW,2013-09-14 16:58:00,
2013-09-14 13:03:00,89.6,76.3,29.88,NW,315,0.0,1.1,65,0.00,,,0.00,WUHU216HW,2013-09-14 17:03:00,
2013-09-14 13:08:00,89.3,76.0,29.88,WNW,293,0.0,0.0,65,0.00,,,0.00,WUHU216HW,2013-09-14 17:08:00,
2013-09-14 13:13:00,88.9,76.2,29.88,West,270,0.0,0.2,66,0.00,,,0.00,WUHU216HW,2013-09-14 17:13:00,
2013-09-14 13:18:00,88.7,76.4,29.88,WSW,248,1.8,1.8,67,0.00,,,0.00,WUHU216HW,2013-09-14 17:18:00,
2013-09-14 13:23:00,88.2,75.9,29.88,WSW,248,0.7,1.8,67,0.00,,,0.00,WUHU216HW,2013-09-14 17:23:00,
2013-09-14 13:28:00,88.0,75.7,29.88,WNW,293,0.0,1.8,67,0.00,,,0.00,WUHU216HW,2013-09-14 17:28:00,
2013-09-14 13:33:00,87.8,75.5,29.88,NNW,338,0.0,0.9,67,0.00,,,0.00,WUHU216HW,2013-09-14 17:33:00,
2013-09-14 13:38:00,87.8,76.0,29.88,WNW,293,0.0,0.0,68,0.00,,,0.00,WUHU216HW,2013-09-14 17:38:00,
2013-09-14 13:43:00,87.8,75.5,29.88,WSW,248,0.0,0.7,67,0.00,,,0.00,WUHU216HW,2013-09-14 17:43:00,
2013-09-14 13:48:00,87.8,76.0,29.87,NNE,23,0.0,1.1,68,0.00,,,0.00,WUHU216HW,2013-09-14 17:48:00,
2013-09-14 13:53:00,88.2,76.3,29.87,WSW,248,0.2,1.1,68,0.00,,,0.00,WUHU216HW,2013-09-14 17:53:00,
2013-09-14 13:58:00,88.6,76.2,29.87,West,270,0.0,2.0,67,0.00,,,0.00,WUHU216HW,2013-09-14 17:58:00,
2013-09-14 14:03:00,88.9,76.6,29.87,WNW,293,1.1,2.0,67,0.00,,,0.00,WUHU216HW,2013-09-14 18:03:00,
2013-09-14 14:08:00,89.1,76.2,29.87,SW,225,0.4,1.1,66,0.00,,,0.00,WUHU216HW,2013-09-14 18:08:00,
2013-09-14 14:13:00,89.1,75.8,29.87,SSW,203,0.0,1.3,65,0.00,,,0.00,WUHU216HW,2013-09-14 18:13:00,
2013-09-14 14:18:00,88.9,76.2,29.87,WSW,248,0.0,1.3,66,0.00,,,0.00,WUHU216HW,2013-09-14 18:18:00,
2013-09-14 14:23:00,89.3,76.4,29.86,WSW,248,0.0,1.1,66,0.00,,,0.00,WUHU216HW,2013-09-14 18:23:00,
2013-09-14 14:28:00,90.4,77.0,29.86,NW,315,0.4,1.1,65,0.00,,,0.00,WUHU216HW,2013-09-14 18:28:00,
2013-09-14 14:33:00,91.1,77.1,29.86,WSW,248,0.4,1.6,64,0.00,,,0.00,WUHU216HW,2013-09-14 18:33:00,
2013-09-14 14:38:00,91.1,77.1,29.86,West,270,0.0,1.6,64,0.00,,,0.00,WUHU216HW,2013-09-14 18:38:00,
2013-09-14 14:43:00,90.9,76.5,29.86,WSW,248,0.0,0.9,63,0.00,,,0.00,WUHU216HW,2013-09-14 18:43:00,
2013-09-14 14:48:00,90.9,76.5,29.86,North,0,0.0,1.1,63,0.00,,,0.00,WUHU216HW,2013-09-14 18:48:00,
2013-09-14 14:53:00,90.7,76.3,29.86,WSW,248,0.0,1.1,63,0.00,,,0.00,WUHU216HW,2013-09-14 18:53:00,
2013-09-14 14:58:00,90.5,76.2,29.86,WNW,293,0.4,0.9,63,0.00,,,0.00,WUHU216HW,2013-09-14 18:58:00,
2013-09-14 15:03:00,90.0,76.1,29.86,NW,315,0.0,0.9,64,0.00,,,0.00,WUHU216HW,2013-09-14 19:03:00,
2013-09-14 15:08:00,89.8,76.1,29.86,NNW,338,0.0,0.4,64,0.00,,,0.00,WUHU216HW,2013-09-14 19:08:00,
2013-09-14 15:13:00,89.6,75.9,29.85,West,270,0.0,1.8,64,0.00,,,0.00,WUHU216HW,2013-09-14 19:13:00,
2013-09-14 15:18:00,89.3,76.0,29.85,West,270,0.0,1.8,65,0.00,,,0.00,WUHU216HW,2013-09-14 19:18:00,
2013-09-14 15:23:00,89.1,75.8,29.85,West,270,0.7,0.9,65,0.00,,,0.00,WUHU216HW,2013-09-14 19:23:00,
2013-09-14 15:28:00,88.9,76.2,29.85,NE,45,0.4,0.9,66,0.00,,,0.00,WUHU216HW,2013-09-14 19:28:00,
2013-09-14 15:33:00,88.9,76.2,29.85,WNW,293,0.0,0.9,66,0.00,,,0.00,WUHU216HW,2013-09-14 19:33:00,
2013-09-14 15:38:00,88.9,76.2,29.85,North,0,0.2,0.9,66,0.00,,,0.00,WUHU216HW,2013-09-14 19:38:00,
2013-09-14 15:43:00,88.9,76.2,29.84,West,270,0.4,0.7,66,0.00,,,0.00,WUHU216HW,2013-09-14 19:43:00,
2013-09-14 15:48:00,88.9,76.2,29.85,WSW,248,0.4,1.1,66,0.00,,,0.00,WUHU216HW,2013-09-14 19:48:00,
2013-09-14 15:53:00,89.8,77.0,29.85,NNW,338,0.2,1.1,66,0.00,,,0.00,WUHU216HW,2013-09-14 19:53:00,
2013-09-14 15:58:00,90.2,76.8,29.84,West,270,0.0,0.4,65,0.00,,,0.00,WUHU216HW,2013-09-14 19:58:00,
2013-09-14 16:03:00,90.2,76.8,29.84,WNW,293,0.0,0.4,65,0.00,,,0.00,WUHU216HW,2013-09-14 20:03:00,
2013-09-14 16:08:00,90.5,77.1,29.84,NW,315,0.0,0.7,65,0.00,,,0.00,WUHU216HW,2013-09-14 20:08:00,
2013-09-14 16:13:00,91.4,77.1,29.84,ESE,113,0.4,1.6,63,0.00,,,0.00,WUHU216HW,2013-09-14 20:13:00,
2013-09-14 16:18:00,91.4,77.1,29.84,NNW,338,0.0,1.6,63,0.00,,,0.00,WUHU216HW,2013-09-14 20:18:00,
2013-09-14 16:23:00,91.1,76.7,29.84,West,270,0.9,1.6,63,0.00,,,0.00,WUHU216HW,2013-09-14 20:23:00,
2013-09-14 16:28:00,90.7,76.9,29.84,WSW,248,0.0,1.8,64,0.00,,,0.00,WUHU216HW,2013-09-14 20:28:00,
2013-09-14 16:33:00,90.5,76.7,29.84,WSW,248,0.0,1.8,64,0.00,,,0.00,WUHU216HW,2013-09-14 20:33:00,
2013-09-14 16:38:00,90.4,76.5,29.84,West,270,0.4,0.9,64,0.00,,,0.00,WUHU216HW,2013-09-14 20:38:00,
2013-09-14 16:43:00,90.2,76.8,29.85,NW,315,0.0,1.6,65,0.00,,,0.00,WUHU216HW,2013-09-14 20:43:00,
2013-09-14 16:48:00,89.8,76.5,29.85,West,270,0.4,2.2,65,0.00,,,0.00,WUHU216HW,2013-09-14 20:48:00,
2013-09-14 16:53:00,89.6,76.3,29.85,WSW,248,0.0,2.2,65,0.00,,,0.00,WUHU216HW,2013-09-14 20:53:00,
2013-09-14 16:58:00,89.3,76.4,29.85,WSW,248,0.7,1.8,66,0.00,,,0.00,WUHU216HW,2013-09-14 20:58:00,
2013-09-14 17:03:00,89.3,76.4,29.85,West,270,0.7,2.0,66,0.00,,,0.00,WUHU216HW,2013-09-14 21:03:00,
2013-09-14 17:08:00,89.3,76.4,29.85,West,270,0.0,2.0,66,0.00,,,0.00,WUHU216HW,2013-09-14 21:08:00,
2013-09-14 17:13:00,89.8,76.5,29.85,WNW,293,0.4,1.6,65,0.00,,,0.00,WUHU216HW,2013-09-14 21:13:00,
2013-09-14 17:18:00,89.6,76.3,29.85,ESE,113,0.2,2.5,65,0.00,,,0.00,WUHU216HW,2013-09-14 21:18:00,
2013-09-14 17:23:00,89.6,76.3,29.85,WNW,293,0.0,2.5,65,0.00,,,0.00,WUHU216HW,2013-09-14 21:23:00,
2013-09-14 17:28:00,89.8,76.5,29.85,West,270,0.0,1.8,65,0.00,,,0.00,WUHU216HW,2013-09-14 21:28:00,
2013-09-14 17:33:00,90.0,76.1,29.85,West,270,1.1,1.8,64,0.00,,,0.00,WUHU216HW,2013-09-14 21:33:00,
2013-09-14 17:38:00,90.2,76.3,29.85,WSW,248,0.9,1.3,64,0.00,,,0.00,WUHU216HW,2013-09-14 21:38:00,
2013-09-14 17:43:00,90.4,76.5,29.85,NNW,338,0.0,1.3,64,0.00,,,0.00,WUHU216HW,2013-09-14 21:43:00,
2013-09-14 17:48:00,90.4,76.5,29.85,North,0,0.4,1.1,64,0.00,,,0.00,WUHU216HW,2013-09-14 21:48:00,
2013-09-14 17:53:00,90.5,76.7,29.85,West,270,0.0,0.9,64,0.00,,,0.00,WUHU216HW,2013-09-14 21:53:00,
2013-09-14 17:58:00,90.4,76.5,29.85,North,0,0.2,0.7,64,0.00,,,0.00,WUHU216HW,2013-09-14 21:58:00,
2013-09-14 18:03:00,90.4,76.5,29.86,WNW,293,1.1,1.1,64,0.00,,,0.00,WUHU216HW,2013-09-14 22:03:00,
2013-09-14 18:08:00,90.4,76.1,29.86,West,270,0.4,1.6,63,0.00,,,0.00,WUHU216HW,2013-09-14 22:08:00,
2013-09-14 18:13:00,89.8,76.1,29.86,NNW,338,0.0,1.6,64,0.00,,,0.00,WUHU216HW,2013-09-14 22:13:00,
2013-09-14 18:18:00,89.5,75.7,29.86,WSW,248,0.4,1.1,64,0.00,,,0.00,WUHU216HW,2013-09-14 22:18:00,
2013-09-14 18:23:00,89.3,75.5,29.86,NW,315,0.2,1.1,64,0.00,,,0.00,WUHU216HW,2013-09-14 22:23:00,
2013-09-14 18:28:00,88.9,75.6,29.86,WSW,248,0.9,1.1,65,0.00,,,0.00,WUHU216HW,2013-09-14 22:28:00,
2013-09-14 18:33:00,88.6,75.3,29.86,WNW,293,0.0,1.1,65,0.00,,,0.00,WUHU216HW,2013-09-14 22:33:00,
2013-09-14 18:38:00,88.2,75.0,29.86,West,270,0.4,0.9,65,0.00,,,0.00,WUHU216HW,2013-09-14 22:38:00,
2013-09-14 18:43:00,87.8,74.6,29.86,WSW,248,0.4,1.1,65,0.00,,,0.00,WUHU216HW,2013-09-14 22:43:00,
2013-09-14 18:48:00,87.5,74.7,29.86,WNW,293,0.0,1.1,66,0.00,,,0.00,WUHU216HW,2013-09-14 22:48:00,
2013-09-14 18:49:00,87.5,74.7,29.86,WNW,293,0.0,1.1,66,0.00,,,0.00,WUHU216HW,2013-09-14 22:49:00,
2013-09-14 18:54:00,87.5,75.2,29.86,NNW,338,1.1,1.1,67,0.00,,,0.00,WUHU216HW,2013-09-14 22:54:00,
2013-09-14 18:59:00,87.1,74.9,29.87,NW,315,0.0,1.1,67,0.00,,,0.00,WUHU216HW,2013-09-14 22:59:00,
2013-09-14 19:04:00,86.9,74.7,29.86,ESE,113,0.0,1.1,67,0.00,,,0.00,WUHU216HW,2013-09-14 23:04:00,
2013-09-14 19:09:00,86.8,74.5,29.86,North,0,0.0,0.4,67,0.00,,,0.00,WUHU216HW,2013-09-14 23:09:00,
2013-09-14 19:14:00,86.6,74.4,29.86,NNW,338,0.0,0.4,67,0.00,,,0.00,WUHU216HW,2013-09-14 23:14:00,
2013-09-14 19:19:00,86.4,74.2,29.86,West,270,0.0,0.2,67,0.00,,,0.00,WUHU216HW,2013-09-14 23:19:00,
2013-09-14 19:24:00,86.2,74.0,29.87,West,270,0.0,0.2,67,0.00,,,0.00,WUHU216HW,2013-09-14 23:24:00,
2013-09-14 19:29:00,86.2,74.4,29.87,West,270,0.0,0.0,68,0.00,,,0.00,WUHU216HW,2013-09-14 23:29:00,
2013-09-14 19:34:00,86.0,74.4,29.87,West,270,0.0,0.0,68,0.00,,,0.00,WUHU216HW,2013-09-14 23:34:00,
2013-09-14 19:39:00,85.9,74.2,29.87,West,270,0.0,0.0,68,0.00,,,0.00,WUHU216HW,2013-09-14 23:39:00,
2013-09-14 19:44:00,85.7,74.4,29.87,West,270,0.0,0.0,69,0.00,,,0.00,WUHU216HW,2013-09-14 23:44:00,
2013-09-14 19:49:00,85.5,74.3,29.87,East,90,0.0,0.0,69,0.00,,,0.00,WUHU216HW,2013-09-14 23:49:00,
2013-09-14 19:54:00,85.3,74.5,29.87,East,90,0.0,0.0,70,0.00,,,0.00,WUHU216HW,2013-09-14 23:54:00,
2013-09-14 19:59:00,85.1,74.3,29.88,ENE,68,0.0,0.0,70,0.00,,,0.00,WUHU216HW,2013-09-14 23:59:00,
2013-09-14 20:04:00,85.0,74.2,29.88,ENE,68,0.0,0.0,70,0.00,,,0.00,WUHU216HW,2013-09-15 00:04:00,
2013-09-14 20:09:00,85.0,74.2,29.87,ENE,68,0.0,0.0,70,0.00,,,0.00,WUHU216HW,2013-09-15 00:09:00,
2013-09-14 20:14:00,84.8,74.3,29.87,ENE,68,0.0,0.0,71,0.00,,,0.00,WUHU216HW,2013-09-15 00:14:00,
2013-09-14 20:19:00,84.6,74.2,29.87,ENE,68,0.0,0.0,71,0.00,,,0.00,WUHU216HW,2013-09-15 00:19:00,
2013-09-14 20:24:00,84.4,74.0,29.88,ENE,68,0.0,0.0,71,0.00,,,0.00,WUHU216HW,2013-09-15 00:24:00,
2013-09-14 20:29:00,84.2,74.3,29.88,ENE,68,0.0,0.0,72,0.00,,,0.00,WUHU216HW,2013-09-15 00:29:00,
2013-09-14 20:34:00,84.2,74.3,29.88,ENE,68,0.0,0.0,72,0.00,,,0.00,WUHU216HW,2013-09-15 00:34:00,
2013-09-14 20:39:00,84.1,74.1,29.89,ENE,68,0.0,0.0,72,0.00,,,0.00,WUHU216HW,2013-09-15 00:39:00,
2013-09-14 20:44:00,84.1,74.1,29.90,ENE,68,0.0,0.0,72,0.00,,,0.00,WUHU216HW,2013-09-15 00:44:00,
2013-09-14 20:49:00,84.1,74.1,29.90,ENE,68,0.0,0.0,72,0.00,,,0.00,WUHU216HW,2013-09-15 00:49:00,
2013-09-14 20:54:00,83.9,74.3,29.90,ENE,68,0.0,0.0,73,0.00,,,0.00,WUHU216HW,2013-09-15 00:54:00,
2013-09-14 20:59:00,83.9,74.3,29.90,ENE,68,0.0,0.0,73,0.00,,,0.00,WUHU216HW,2013-09-15 00:59:00,
2013-09-14 21:04:00,83.7,74.1,29.90,ENE,68,0.0,0.0,73,0.00,,,0.00,WUHU216HW,2013-09-15 01:04:00,
2013-09-14 21:09:00,83.7,74.1,29.91,ENE,68,0.0,0.0,73,0.00,,,0.00,WUHU216HW,2013-09-15 01:09:00,
2013-09-14 21:14:00,83.5,73.9,29.91,ENE,68,0.0,0.0,73,0.00,,,0.00,WUHU216HW,2013-09-15 01:14:00,
2013-09-14 21:19:00,83.5,73.9,29.91,ENE,68,0.0,0.0,73,0.00,,,0.00,WUHU216HW,2013-09-15 01:19:00,
2013-09-14 21:24:00,83.5,74.4,29.91,ENE,68,0.0,0.0,74,0.00,,,0.00,WUHU216HW,2013-09-15 01:24:00,
2013-09-14 21:29:00,83.3,74.2,29.91,ENE,68,0.0,0.0,74,0.00,,,0.00,WUHU216HW,2013-09-15 01:29:00,
2013-09-14 21:34:00,83.3,74.2,29.91,ENE,68,0.0,0.0,74,0.00,,,0.00,WUHU216HW,2013-09-15 01:34:00,
2013-09-14 21:39:00,83.3,74.6,29.92,ENE,68,0.0,0.0,75,0.00,,,0.00,WUHU216HW,2013-09-15 01:39:00,
2013-09-14 21:44:00,83.2,74.0,29.92,ESE,113,0.0,0.4,74,0.00,,,0.00,WUHU216HW,2013-09-15 01:44:00,
2013-09-14 21:49:00,83.2,74.4,29.93,SE,135,0.0,0.4,75,0.00,,,0.00,WUHU216HW,2013-09-15 01:49:00,
2013-09-14 21:54:00,83.2,74.8,29.93,ESE,113,0.0,0.0,76,0.00,,,0.00,WUHU216HW,2013-09-15 01:54:00,
2013-09-14 21:59:00,83.2,74.8,29.93,ESE,113,0.0,0.0,76,0.00,,,0.00,WUHU216HW,2013-09-15 01:59:00,
2013-09-14 22:04:00,83.2,74.8,29.93,North,0,0.0,0.0,76,0.00,,,0.00,WUHU216HW,2013-09-15 02:04:00,
2013-09-14 22:09:00,83.2,74.8,29.93,ENE,68,0.0,0.4,76,0.00,,,0.00,WUHU216HW,2013-09-15 02:09:00,
2013-09-14 22:14:00,83.0,74.6,29.93,NNE,23,0.0,1.3,76,0.00,,,0.00,WUHU216HW,2013-09-15 02:14:00,
2013-09-14 22:19:00,83.2,74.8,29.93,ENE,68,0.0,1.3,76,0.00,,,0.00,WUHU216HW,2013-09-15 02:19:00,
2013-09-14 22:24:00,83.2,74.8,29.94,East,90,0.0,1.1,76,0.00,,,0.00,WUHU216HW,2013-09-15 02:24:00,
2013-09-14 22:29:00,83.2,74.8,29.94,East,90,0.2,2.5,76,0.00,,,0.00,WUHU216HW,2013-09-15 02:29:00,
2013-09-14 22:34:00,83.0,74.3,29.94,South,180,0.0,2.5,75,0.00,,,0.00,WUHU216HW,2013-09-15 02:34:00,
2013-09-14 22:39:00,83.0,74.3,29.94,NNW,338,0.0,1.1,75,0.00,,,0.00,WUHU216HW,2013-09-15 02:39:00,
2013-09-14 22:44:00,83.0,74.3,29.93,North,0,0.0,0.2,75,0.00,,,0.00,WUHU216HW,2013-09-15 02:44:00,
2013-09-14 22:49:00,83.0,74.3,29.93,North,0,0.0,0.2,75,0.00,,,0.00,WUHU216HW,2013-09-15 02:49:00,
2013-09-14 22:54:00,82.8,74.1,29.93,North,0,0.0,0.0,75,0.00,,,0.00,WUHU216HW,2013-09-15 02:54:00,
2013-09-14 22:59:00,82.8,74.4,29.92,North,0,0.0,0.0,76,0.00,,,0.00,WUHU216HW,2013-09-15 02:59:00,
2013-09-14 23:04:00,82.6,74.3,29.92,North,0,0.0,0.0,76,0.00,,,0.00,WUHU216HW,2013-09-15 03:04:00,
2013-09-14 23:09:00,82.4,74.2,29.92,North,0,0.0,0.0,76,0.00,,,0.00,WUHU216HW,2013-09-15 03:09:00,
2013-09-14 23:14:00,82.3,74.0,29.92,SSE,158,0.4,0.4,76,0.00,,,0.00,WUHU216HW,2013-09-15 03:14:00,
2013-09-14 23:19:00,82.1,73.8,29.92,SSE,158,0.0,0.4,76,0.00,,,0.00,WUHU216HW,2013-09-15 03:19:00,
2013-09-14 23:24:00,82.1,73.8,29.92,SSE,158,0.0,0.4,76,0.00,,,0.00,WUHU216HW,2013-09-15 03:24:00,
2013-09-14 23:29:00,81.9,74.0,29.92,SSE,158,0.0,0.0,77,0.00,,,0.00,WUHU216HW,2013-09-15 03:29:00,
2013-09-14 23:34:00,81.7,73.8,29.92,SSE,158,0.0,0.0,77,0.00,,,0.00,WUHU216HW,2013-09-15 03:34:00,
2013-09-14 23:39:00,81.7,73.8,29.92,SSE,158,0.0,0.0,77,0.00,,,0.00,WUHU216HW,2013-09-15 03:39:00,
2013-09-14 23:44:00,81.7,73.5,29.92,SSE,158,0.0,0.0,76,0.00,,,0.00,WUHU216HW,2013-09-15 03:44:00,
2013-09-14 23:49:00,81.7,73.5,29.92,SSE,158,0.0,0.0,76,0.00,,,0.00,WUHU216HW,2013-09-15 03:49:00,
2013-09-14 23:54:00,81.5,73.7,29.92,SSE,158,0.0,0.0,77,0.00,,,0.00,WUHU216HW,2013-09-15 03:54:00,
2013-09-14 23:59:00,81.5,73.7,29.92,SSE,158,0.0,0.0,77,0.00,,,0.00,WUHU216HW,2013-09-15 03:59:00,